MAS775 VTBS-WMKK

Flight info

Callsign MAS775
Flight time 1h 39m
Altitude 37000
Route BUT1E BUT Y11 PASVA Y514 EMPUR/N0472F380 G466 PULIP PULIP1H
Aircraft A339/H-SADE1E2E3GHIJ3J5M1P2RWXY/LB2D1

Departure

Time 2026-05-01 11:28
Airport Suvarnabhumi Airport (VTBS)

Arrival

Time 2026-05-01 13:07
Airport Kuala Lumpur International Airport (WMKK)
Time Latitude Longitude Altitude Speed Heading
2026-05-01 11:18 13.68400 100.74512 23 ft 0 kts 194°
2026-05-01 11:21 13.68410 100.74514 23 ft 2 kts 194°
2026-05-01 11:21 13.68425 100.74518 23 ft 2 kts 194°
2026-05-01 11:21 13.68440 100.74522 23 ft 2 kts 194°
2026-05-01 11:22 13.68454 100.74526 23 ft 2 kts 194°
2026-05-01 11:22 13.68468 100.74529 23 ft 0 kts 194°
2026-05-01 11:22 13.68477 100.74532 23 ft 2 kts 179°
2026-05-01 11:22 13.68490 100.74528 23 ft 2 kts 144°
2026-05-01 11:23 13.68501 100.74516 23 ft 2 kts 110°
2026-05-01 11:23 13.68503 100.74509 23 ft 1 kts 103°
2026-05-01 11:23 13.68503 100.74508 23 ft 0 kts 103°
2026-05-01 11:24 13.68502 100.74511 23 ft 2 kts 104°
2026-05-01 11:24 13.68503 100.74628 23 ft 10 kts 46°
2026-05-01 11:25 13.68580 100.74663 23 ft 14 kts 16°
2026-05-01 11:25 13.68666 100.74809 23 ft 20 kts 103°
2026-05-01 11:25 13.68620 100.74995 23 ft 28 kts 104°
2026-05-01 11:26 13.68571 100.75188 23 ft 27 kts 104°
2026-05-01 11:26 13.68482 100.75542 23 ft 24 kts 103°
2026-05-01 11:26 13.68443 100.75713 23 ft 24 kts 105°
2026-05-01 11:27 13.68346 100.75811 23 ft 19 kts 161°
2026-05-01 11:27 13.68184 100.75830 20 ft 43 kts 185°
2026-05-01 11:27 13.67612 100.75693 20 ft 122 kts 195°
2026-05-01 11:27 13.66573 100.75423 194 ft 171 kts 194°
2026-05-01 11:28 13.65446 100.75137 1024 ft 170 kts 190°
2026-05-01 11:28 13.64265 100.75035 1799 ft 176 kts 179°
2026-05-01 11:28 13.63012 100.75077 2200 ft 187 kts 176°
2026-05-01 11:29 13.60161 100.75232 2804 ft 222 kts 173°
2026-05-01 11:29 13.58571 100.75481 3137 ft 240 kts 166°
2026-05-01 11:29 13.55199 100.76658 3998 ft 269 kts 160°
2026-05-01 11:30 13.53399 100.77237 4729 ft 271 kts 163°
2026-05-01 11:30 13.51595 100.77781 5447 ft 273 kts 163°
2026-05-01 11:30 13.49761 100.78316 6152 ft 275 kts 164°
2026-05-01 11:30 13.47923 100.78845 6839 ft 277 kts 164°
2026-05-01 11:31 13.46049 100.79384 7503 ft 280 kts 165°
2026-05-01 11:31 13.44193 100.79916 8142 ft 282 kts 165°
2026-05-01 11:31 13.42278 100.80466 8809 ft 285 kts 165°
2026-05-01 11:31 13.40371 100.80999 9458 ft 288 kts 167°
2026-05-01 11:32 13.38376 100.81368 10102 ft 290 kts 174°
2026-05-01 11:32 13.36322 100.81509 10462 ft 304 kts 179°
2026-05-01 11:32 13.34134 100.81522 10745 ft 320 kts 180°
2026-05-01 11:32 13.31867 100.81515 11008 ft 336 kts 180°
2026-05-01 11:33 13.29459 100.81506 11274 ft 352 kts 180°
2026-05-01 11:33 13.26967 100.81501 11635 ft 363 kts 180°
2026-05-01 11:33 13.24423 100.81496 12214 ft 367 kts 180°
2026-05-01 11:33 13.21833 100.81491 12849 ft 369 kts 180°
2026-05-01 11:34 13.19267 100.81490 13433 ft 372 kts 180°
2026-05-01 11:34 13.16656 100.81490 14012 ft 376 kts 180°
2026-05-01 11:34 13.14020 100.81488 14585 ft 379 kts 180°
2026-05-01 11:34 13.11388 100.81488 15135 ft 383 kts 178°
2026-05-01 11:35 13.08707 100.81759 15678 ft 386 kts 169°
2026-05-01 11:35 13.06111 100.82448 16240 ft 389 kts 161°
2026-05-01 11:35 13.03593 100.83483 16762 ft 392 kts 156°
2026-05-01 11:35 13.01063 100.84613 17318 ft 395 kts 156°
2026-05-01 11:36 12.98535 100.85757 17809 ft 399 kts 155°
2026-05-01 11:36 12.95978 100.86911 18268 ft 404 kts 155°
2026-05-01 11:36 12.93385 100.88077 18735 ft 408 kts 156°
2026-05-01 11:36 12.90764 100.89254 19192 ft 413 kts 156°
2026-05-01 11:37 12.88132 100.90432 19662 ft 416 kts 156°
2026-05-01 11:37 12.85456 100.91628 20119 ft 420 kts 156°
2026-05-01 11:37 12.82783 100.92824 20554 ft 423 kts 156°
2026-05-01 11:37 12.80073 100.94035 20972 ft 427 kts 156°
2026-05-01 11:38 12.77314 100.95267 21375 ft 430 kts 156°
2026-05-01 11:38 12.74559 100.96496 21765 ft 434 kts 156°
2026-05-01 11:38 12.71751 100.97748 22136 ft 438 kts 156°
2026-05-01 11:38 12.68952 100.98978 22513 ft 442 kts 158°
2026-05-01 11:39 12.66047 101.00095 22905 ft 445 kts 161°
2026-05-01 11:39 12.63086 101.01039 23311 ft 447 kts 164°
2026-05-01 11:39 12.60078 101.01904 23691 ft 450 kts 165°
2026-05-01 11:39 12.57046 101.02766 24067 ft 453 kts 165°
2026-05-01 11:40 12.53998 101.03631 24449 ft 456 kts 165°
2026-05-01 11:40 12.50933 101.04502 24826 ft 459 kts 165°
2026-05-01 11:40 12.47804 101.05393 25187 ft 462 kts 165°
2026-05-01 11:40 12.44726 101.06270 25535 ft 464 kts 165°
2026-05-01 11:41 12.41578 101.07166 25883 ft 467 kts 165°
2026-05-01 11:41 12.38430 101.07949 26217 ft 470 kts 169°
2026-05-01 11:41 12.35179 101.08460 26562 ft 472 kts 174°
2026-05-01 11:41 12.31864 101.08678 26880 ft 474 kts 179°
2026-05-01 11:42 12.28580 101.08688 27197 ft 477 kts 181°
2026-05-01 11:42 12.25211 101.08656 27516 ft 480 kts 181°
2026-05-01 11:42 12.21878 101.08618 27828 ft 482 kts 181°
2026-05-01 11:42 12.18527 101.08582 28142 ft 484 kts 181°
2026-05-01 11:43 12.15103 101.08549 28446 ft 487 kts 181°
2026-05-01 11:43 12.11738 101.08520 28750 ft 489 kts 181°
2026-05-01 11:43 12.08300 101.08492 29060 ft 491 kts 181°
2026-05-01 11:44 12.01419 101.08439 29893 ft 491 kts 181°
2026-05-01 11:44 11.98047 101.08413 30400 ft 488 kts 181°
2026-05-01 11:44 11.94655 101.08386 30907 ft 485 kts 181°
2026-05-01 11:44 11.91249 101.08360 31378 ft 483 kts 181°
2026-05-01 11:45 11.87903 101.08335 31805 ft 482 kts 181°
2026-05-01 11:45 11.84558 101.08310 32244 ft 481 kts 181°
2026-05-01 11:45 11.81204 101.08285 32721 ft 479 kts 181°
2026-05-01 11:45 11.77873 101.08262 33213 ft 477 kts 181°
2026-05-01 11:46 11.74539 101.08238 33738 ft 475 kts 181°
2026-05-01 11:46 11.71262 101.08214 34276 ft 472 kts 181°
2026-05-01 11:46 11.67960 101.08218 34820 ft 469 kts 179°
2026-05-01 11:46 11.64728 101.08378 35315 ft 467 kts 176°
2026-05-01 11:47 11.61478 101.08715 35678 ft 468 kts 173°
2026-05-01 11:47 11.58240 101.09232 35941 ft 470 kts 171°
2026-05-01 11:47 11.55031 101.09822 36191 ft 472 kts 171°
2026-05-01 11:47 11.51757 101.10434 36459 ft 474 kts 171°
2026-05-01 11:48 11.48538 101.11037 36738 ft 474 kts 171°
2026-05-01 11:48 11.45294 101.11643 36860 ft 476 kts 171°
2026-05-01 11:48 11.38729 101.12866 36859 ft 475 kts 171°
2026-05-01 11:49 11.32244 101.14070 36858 ft 475 kts 171°
2026-05-01 11:49 11.25724 101.15279 36856 ft 476 kts 171°
2026-05-01 11:50 11.19172 101.16495 36862 ft 476 kts 171°
2026-05-01 11:50 11.12669 101.17699 36858 ft 476 kts 171°
2026-05-01 11:51 11.06131 101.18913 36858 ft 476 kts 171°
2026-05-01 11:51 10.99586 101.20124 36857 ft 475 kts 170°
2026-05-01 11:52 10.93070 101.21331 36860 ft 476 kts 170°
2026-05-01 11:52 10.86513 101.22544 36862 ft 476 kts 170°
2026-05-01 11:53 10.79997 101.23749 36865 ft 476 kts 170°
2026-05-01 11:53 10.73455 101.24959 36863 ft 477 kts 170°
2026-05-01 11:54 10.66899 101.26171 36861 ft 477 kts 170°
2026-05-01 11:54 10.60389 101.27375 36861 ft 478 kts 170°
2026-05-01 11:55 10.53805 101.28591 36861 ft 478 kts 170°
2026-05-01 11:55 10.47273 101.29798 36861 ft 477 kts 170°
2026-05-01 11:56 10.40702 101.31012 36861 ft 478 kts 170°
2026-05-01 11:56 10.34147 101.32221 36862 ft 479 kts 170°
2026-05-01 11:57 10.27589 101.33432 36869 ft 479 kts 170°
2026-05-01 11:57 10.21014 101.34648 36879 ft 479 kts 170°
2026-05-01 11:58 10.14455 101.35863 36881 ft 479 kts 170°
2026-05-01 11:59 10.04594 101.37687 36882 ft 479 kts 170°
2026-05-01 11:59 9.98010 101.38905 36882 ft 480 kts 170°
2026-05-01 12:00 9.88152 101.40726 36877 ft 480 kts 169°
2026-05-01 12:01 9.78268 101.42553 36874 ft 481 kts 169°
2026-05-01 12:01 9.71642 101.43778 36875 ft 482 kts 169°
2026-05-01 12:02 9.65030 101.44998 36874 ft 482 kts 169°
2026-05-01 12:02 9.58441 101.46213 36872 ft 481 kts 169°
2026-05-01 12:03 9.51835 101.47432 36875 ft 481 kts 169°
2026-05-01 12:03 9.45260 101.48646 36878 ft 480 kts 169°
2026-05-01 12:04 9.38645 101.49866 36882 ft 480 kts 169°
2026-05-01 12:04 9.32077 101.51076 36882 ft 480 kts 169°
2026-05-01 12:05 9.25480 101.52291 36882 ft 480 kts 169°
2026-05-01 12:05 9.15601 101.54111 36881 ft 480 kts 169°
2026-05-01 12:06 9.09005 101.55326 36882 ft 480 kts 169°
2026-05-01 12:06 9.02454 101.56534 36882 ft 480 kts 169°
2026-05-01 12:07 8.95851 101.57747 36882 ft 479 kts 169°
2026-05-01 12:07 8.89290 101.58949 36880 ft 480 kts 169°
2026-05-01 12:08 8.82703 101.60160 36878 ft 480 kts 168°
2026-05-01 12:08 8.76094 101.61375 36877 ft 481 kts 168°
2026-05-01 12:09 8.69488 101.62592 36878 ft 481 kts 168°
2026-05-01 12:09 8.62904 101.63803 36877 ft 480 kts 168°
2026-05-01 12:10 8.53032 101.65617 36880 ft 479 kts 168°
2026-05-01 12:11 8.43177 101.67426 36880 ft 479 kts 168°
2026-05-01 12:11 8.36612 101.68632 36882 ft 479 kts 168°
2026-05-01 12:12 8.30018 101.69844 36881 ft 479 kts 168°
2026-05-01 12:12 8.23470 101.71046 36881 ft 478 kts 168°
2026-05-01 12:13 8.16908 101.72251 36878 ft 478 kts 168°
2026-05-01 12:13 8.10356 101.73455 36878 ft 477 kts 168°
2026-05-01 12:14 8.03780 101.74663 36867 ft 486 kts 168°
2026-05-01 12:14 7.97052 101.75902 36867 ft 491 kts 168°
2026-05-01 12:15 7.90339 101.77145 36866 ft 491 kts 168°
2026-05-01 12:15 7.83559 101.78400 36859 ft 491 kts 168°
2026-05-01 12:16 7.77023 101.79610 36866 ft 492 kts 168°
2026-05-01 12:16 7.70270 101.80859 36861 ft 492 kts 168°
2026-05-01 12:17 7.63531 101.82105 36863 ft 491 kts 168°
2026-05-01 12:17 7.56776 101.83355 36866 ft 491 kts 168°
2026-05-01 12:18 7.50047 101.84600 36862 ft 491 kts 168°
2026-05-01 12:18 7.43323 101.85843 36862 ft 492 kts 168°
2026-05-01 12:19 7.36575 101.87090 36866 ft 491 kts 168°
2026-05-01 12:19 7.29836 101.88335 36862 ft 491 kts 168°
2026-05-01 12:20 7.23114 101.89576 36862 ft 491 kts 168°
2026-05-01 12:20 7.16352 101.90824 36863 ft 490 kts 168°
2026-05-01 12:21 7.09651 101.92061 36863 ft 490 kts 167°
2026-05-01 12:21 7.02905 101.93307 36862 ft 490 kts 168°
2026-05-01 12:22 6.96191 101.94545 36862 ft 490 kts 168°
2026-05-01 12:22 6.89466 101.95785 36862 ft 490 kts 168°
2026-05-01 12:23 6.82733 101.97028 36862 ft 490 kts 168°
2026-05-01 12:23 6.76007 101.98267 36867 ft 490 kts 168°
2026-05-01 12:24 6.69296 101.99503 36869 ft 490 kts 167°
2026-05-01 12:24 6.62599 102.00738 36868 ft 489 kts 168°
2026-05-01 12:25 6.52541 102.02591 36869 ft 488 kts 168°
2026-05-01 12:26 6.45864 102.03821 36870 ft 488 kts 168°
2026-05-01 12:26 6.35820 102.05672 36873 ft 488 kts 168°
2026-05-01 12:27 6.25829 102.07661 36879 ft 487 kts 164°
2026-05-01 12:28 6.16135 102.10674 36883 ft 485 kts 160°
2026-05-01 12:29 6.06498 102.13854 36882 ft 484 kts 160°
2026-05-01 12:29 5.96859 102.17027 36884 ft 484 kts 160°
2026-05-01 12:30 5.87232 102.20195 36891 ft 485 kts 160°
2026-05-01 12:31 5.80756 102.22039 36893 ft 487 kts 166°
2026-05-01 12:31 5.74008 102.22988 36896 ft 489 kts 174°
2026-05-01 12:32 5.67202 102.22963 36897 ft 491 kts 182°
2026-05-01 12:32 5.57005 102.21475 36898 ft 492 kts 188°
2026-05-01 12:33 5.50209 102.20332 36897 ft 492 kts 187°
2026-05-01 12:33 5.43440 102.19192 36896 ft 492 kts 188°
2026-05-01 12:34 5.36705 102.18059 36898 ft 492 kts 188°
2026-05-01 12:34 5.29922 102.16919 36900 ft 493 kts 188°
2026-05-01 12:35 5.23129 102.15778 36907 ft 493 kts 187°
2026-05-01 12:35 5.16352 102.14639 36914 ft 493 kts 188°
2026-05-01 12:36 5.09552 102.13498 36917 ft 493 kts 187°
2026-05-01 12:36 5.02763 102.12358 36918 ft 493 kts 188°
2026-05-01 12:37 4.96006 102.11224 36922 ft 493 kts 188°
2026-05-01 12:37 4.89196 102.10081 36923 ft 493 kts 188°
2026-05-01 12:38 4.82416 102.08945 36927 ft 493 kts 188°
2026-05-01 12:38 4.75647 102.07810 36930 ft 493 kts 188°
2026-05-01 12:39 4.68878 102.06675 36928 ft 493 kts 188°
2026-05-01 12:39 4.62091 102.05537 36919 ft 493 kts 188°
2026-05-01 12:40 4.55292 102.04397 36914 ft 492 kts 188°
2026-05-01 12:40 4.48553 102.03268 36914 ft 492 kts 188°
2026-05-01 12:41 4.41822 102.02140 36544 ft 482 kts 188°
2026-05-01 12:41 4.38512 102.01584 36234 ft 474 kts 188°
2026-05-01 12:41 4.35289 102.01043 35900 ft 469 kts 188°
2026-05-01 12:42 4.32046 102.00500 35409 ft 468 kts 188°
2026-05-01 12:42 4.28849 101.99966 34859 ft 468 kts 188°
2026-05-01 12:42 4.25619 101.99425 34280 ft 469 kts 188°
2026-05-01 12:42 4.22413 101.98889 33697 ft 469 kts 188°
2026-05-01 12:43 4.19152 101.98343 33102 ft 469 kts 188°
2026-05-01 12:43 4.15947 101.97806 32509 ft 469 kts 188°
2026-05-01 12:43 4.12719 101.97266 31969 ft 469 kts 188°
2026-05-01 12:43 4.09515 101.96729 31382 ft 470 kts 188°
2026-05-01 12:44 4.06254 101.96184 30757 ft 471 kts 188°
2026-05-01 12:44 4.03010 101.95642 30118 ft 473 kts 188°
2026-05-01 12:44 3.96493 101.94551 28831 ft 476 kts 188°
2026-05-01 12:45 3.89979 101.93458 27927 ft 469 kts 188°
2026-05-01 12:45 3.86766 101.92919 27465 ft 466 kts 188°
2026-05-01 12:45 3.83578 101.92384 27034 ft 462 kts 188°
2026-05-01 12:46 3.80394 101.91852 26616 ft 458 kts 188°
2026-05-01 12:46 3.77293 101.91333 26210 ft 455 kts 188°
2026-05-01 12:46 3.74178 101.90812 25797 ft 451 kts 188°
2026-05-01 12:46 3.71088 101.90293 25389 ft 447 kts 188°
2026-05-01 12:47 3.68029 101.89781 24861 ft 446 kts 186°
2026-05-01 12:47 3.64920 101.89381 23980 ft 453 kts 185°
2026-05-01 12:47 3.61747 101.89004 23049 ft 460 kts 184°
2026-05-01 12:47 3.58538 101.88618 22361 ft 461 kts 184°
2026-05-01 12:48 3.55373 101.88229 21857 ft 457 kts 185°
2026-05-01 12:48 3.52230 101.87837 21359 ft 454 kts 185°
2026-05-01 12:48 3.49093 101.87440 20844 ft 450 kts 185°
2026-05-01 12:48 3.46009 101.87045 20330 ft 448 kts 185°
2026-05-01 12:49 3.42931 101.86650 19820 ft 445 kts 185°
2026-05-01 12:49 3.39841 101.86253 19314 ft 441 kts 185°
2026-05-01 12:49 3.36810 101.85863 18822 ft 438 kts 185°
2026-05-01 12:49 3.33795 101.85474 18319 ft 435 kts 185°
2026-05-01 12:50 3.30958 101.85109 17841 ft 433 kts 185°
2026-05-01 12:50 3.27799 101.84703 17320 ft 429 kts 185°
2026-05-01 12:50 3.24830 101.84320 16835 ft 427 kts 185°
2026-05-01 12:50 3.21919 101.83946 16362 ft 423 kts 185°
2026-05-01 12:51 3.19004 101.83571 15902 ft 420 kts 185°
2026-05-01 12:51 3.16105 101.83196 15434 ft 417 kts 185°
2026-05-01 12:51 3.10377 101.82458 14497 ft 410 kts 185°
2026-05-01 12:52 3.07567 101.82097 14042 ft 407 kts 185°
2026-05-01 12:52 3.01988 101.81378 13161 ft 401 kts 185°
2026-05-01 12:52 2.99211 101.81021 12689 ft 398 kts 185°
2026-05-01 12:53 2.93742 101.80317 11800 ft 392 kts 185°
2026-05-01 12:53 2.91019 101.79967 11337 ft 389 kts 185°
2026-05-01 12:53 2.88360 101.79625 10883 ft 386 kts 185°
2026-05-01 12:54 2.85699 101.79282 10525 ft 381 kts 185°
2026-05-01 12:54 2.80515 101.78715 10083 ft 359 kts 175°
2026-05-01 12:54 2.78203 101.79328 9985 ft 340 kts 150°
2026-05-01 12:55 2.74620 101.81997 9282 ft 303 kts 139°
2026-05-01 12:55 2.72991 101.83263 8936 ft 290 kts 141°
2026-05-01 12:55 2.71394 101.84436 8614 ft 278 kts 142°
2026-05-01 12:56 2.69822 101.85543 8296 ft 278 kts 142°
2026-05-01 12:56 2.68238 101.86631 7925 ft 275 kts 143°
2026-05-01 12:56 2.66649 101.87706 7626 ft 269 kts 143°
2026-05-01 12:56 2.65110 101.88741 7324 ft 263 kts 143°
2026-05-01 12:57 2.63610 101.89747 7031 ft 258 kts 143°
2026-05-01 12:57 2.60614 101.91757 6472 ft 259 kts 143°
2026-05-01 12:57 2.59123 101.92757 6197 ft 261 kts 143°
2026-05-01 12:58 2.57607 101.93774 5857 ft 255 kts 143°
2026-05-01 12:58 2.56171 101.94734 5587 ft 243 kts 143°
2026-05-01 12:58 2.54786 101.95648 5334 ft 236 kts 148°
2026-05-01 12:59 2.51690 101.95391 4805 ft 244 kts 225°
2026-05-01 12:59 2.50690 101.94012 4573 ft 244 kts 238°
2026-05-01 12:59 2.48923 101.91160 4167 ft 239 kts 237°
2026-05-01 13:00 2.48026 101.88105 3768 ft 232 kts 288°
2026-05-01 13:00 2.48809 101.86768 3601 ft 224 kts 321°
2026-05-01 13:01 2.51309 101.85119 3452 ft 207 kts 331°
2026-05-01 13:01 2.52534 101.84383 3333 ft 203 kts 330°
2026-05-01 13:01 2.54856 101.82896 3122 ft 194 kts 328°
2026-05-01 13:02 2.55983 101.82144 3039 ft 194 kts 329°
2026-05-01 13:07 2.73157 101.70685 86 ft 3 kts 353°
2026-05-01 13:07 2.73176 101.70682 87 ft 2 kts 353°
2026-05-01 13:07 2.73190 101.70681 87 ft 1 kts 355°
2026-05-01 13:08 2.73222 101.70678 88 ft 11 kts 355°
2026-05-01 13:08 2.73298 101.70673 91 ft 10 kts 357°
2026-05-01 13:08 2.73365 101.70664 92 ft 10 kts 339°
2026-05-01 13:08 2.73438 101.70622 90 ft 13 kts 327°
2026-05-01 13:09 2.73529 101.70561 86 ft 17 kts 326°
2026-05-01 13:09 2.73642 101.70485 79 ft 21 kts 326°
2026-05-01 13:09 2.73771 101.70400 76 ft 22 kts 325°
2026-05-01 13:09 2.73905 101.70309 73 ft 23 kts 326°
2026-05-01 13:10 2.74040 101.70219 72 ft 21 kts 326°
2026-05-01 13:10 2.74136 101.70155 72 ft 16 kts 326°
2026-05-01 13:10 2.74232 101.70091 72 ft 12 kts 325°
2026-05-01 13:10 2.74292 101.70050 71 ft 9 kts 326°
2026-05-01 13:11 2.74326 101.70027 71 ft 0 kts 326°
2026-05-01 13:11 2.74352 101.70010 71 ft 10 kts 326°
2026-05-01 13:11 2.74406 101.69998 71 ft 6 kts 40°
2026-05-01 13:12 2.74435 101.70044 73 ft 12 kts 59°
2026-05-01 13:12 2.74491 101.70132 76 ft 14 kts 56°
2026-05-01 13:12 2.74549 101.70217 76 ft 15 kts 56°
2026-05-01 13:12 2.74607 101.70304 78 ft 14 kts 56°
2026-05-01 13:13 2.74663 101.70386 80 ft 14 kts 56°
2026-05-01 13:13 2.74717 101.70467 81 ft 14 kts 56°
2026-05-01 13:13 2.74772 101.70548 82 ft 14 kts 56°
2026-05-01 13:13 2.74827 101.70628 83 ft 13 kts 56°
2026-05-01 13:14 2.74882 101.70708 84 ft 13 kts 55°
2026-05-01 13:14 2.74936 101.70788 85 ft 13 kts 56°
2026-05-01 13:14 2.74991 101.70869 86 ft 13 kts 56°
2026-05-01 13:14 2.75034 101.70932 86 ft 8 kts 56°
2026-05-01 13:15 2.75053 101.70985 86 ft 8 kts 94°
2026-05-01 13:15 2.75016 101.71030 85 ft 9 kts 146°
2026-05-01 13:15 2.74965 101.71066 85 ft 7 kts 146°
2026-05-01 13:15 2.74934 101.71091 86 ft 4 kts 117°
2026-05-01 13:16 2.74942 101.71125 85 ft 3 kts 61°
2026-05-01 13:16 2.74953 101.71144 84 ft 0 kts 58°
2026-05-01 13:16 2.74955 101.71146 84 ft 0 kts 58°